[[{"header":{"parameterUnit":"m.s-1","parameterCategory":2,"la1":30.2991,"la2":30.254,"lo1":-89.0895,"lo2":-89.0444,"dy":0.0017,"dx":0.0017,"nx":28,"ny":28,"refTime":"2023-10-05T21:00:00:Z","depth":"0","parameterNumber":2,"parameterNumberName":"U-component_of_CURRENTS"},"data":[0,0,0,0,0,0,0,0,0,0,0,0,0,0,0,0,0,0,0,0,0,0,0,0,0,0,0,0,0,0,0,0,0,0,0,0,0,0,0,0,0,0,0,0,0,0,0,0,0,0,0,0,0,0,0,0,0,0,-0.2959,-0.296,0,-0.3069,-0.307,-0.3071,-0.3031,-0.3029,-0.3026,-0.3024,-0.3038,-0.3041,-0.3043,0,0,0,0,0,0,0,0,0,0,0,0,0,-0.2778,-0.2781,-0.2959,-0.296,-0.2961,-0.3068,-0.307,-0.3072,-0.3032,-0.3029,-0.3026,-0.3023,-0.3037,-0.304,-0.3044,0,0,0,0,0,0,0,0,0,0,0,0,0,-0.287,-0.2782,-0.2958,-0.2954,-0.2954,-0.3068,-0.307,-0.3072,-0.3032,-0.3029,-0.3025,-0.3021,-0.3036,-0.304,-0.3044,-0.3146,0,0,-0.3057,-0.3058,0,0,0,0,0,0,0,0,-0.2864,-0.2876,-0.2953,-0.2954,-0.2955,-0.3032,-0.3012,-0.3092,-0.3033,-0.3004,-0.3024,-0.3019,-0.3029,-0.3034,-0.3065,-0.3147,-0.3147,-0.3057,-0.3059,-0.3061,-0.3062,0,0,0,0,0,0,0,-0.2858,-0.2872,-0.3003,-0.2955,-0.2956,-0.2968,-0.2976,-0.3027,-0.3035,-0.3006,-0.3003,-0.3015,-0.3029,-0.3062,-0.3065,-0.3148,-0.3057,-0.3061,-0.3063,-0.3065,-0.3194,-0.3195,0,0,0,0,0,0,-0.2845,-0.2866,-0.2999,-0.3006,-0.2899,-0.2974,-0.2983,-0.3012,-0.3037,-0.3038,-0.3019,-0.3013,-0.3056,-0.306,-0.3065,-0.3066,-0.3061,-0.3065,-0.3067,-0.3193,-0.3194,-0.3195,0,0,0,0,0,0,-0.2841,-0.2857,-0.2995,-0.2936,-0.2954,-0.2981,-0.3013,-0.3016,-0.303,-0.3047,-0.3045,-0.3026,-0.3054,-0.3059,-0.3099,-0.307,-0.3067,-0.3071,-0.3192,-0.3194,-0.3195,-0.3144,0,0,0,0,0,0,-0.2836,-0.2855,-0.2873,-0.2936,-0.2957,-0.3039,-0.3017,-0.3021,-0.3044,-0.3037,-0.3055,-0.3053,-0.3051,-0.3093,-0.3103,-0.3075,-0.3074,-0.3191,-0.3193,-0.3194,-0.3145,-0.3144,-0.3143,0,0,0,0,0,-0.2829,-0.2862,-0.2873,-0.2889,-0.2981,-0.3039,-0.3051,-0.3057,-0.3048,-0.3056,-0.3073,-0.3051,-0.3109,-0.3099,-0.311,-0.3082,-0.319,-0.3192,-0.3194,-0.3145,-0.3144,-0.3143,0,0,0,0,0,0,-0.279,-0.2864,-0.2876,-0.293,-0.297,-0.3031,-0.3045,-0.3064,-0.3093,-0.3079,-0.3091,-0.3092,-0.3108,-0.3127,-0.3114,-0.3128,-0.3137,-0.3142,-0.3096,-0.3095,-0.3094,-0.3039,-0.3077,0,0,0,0,0,-0.2796,-0.2834,-0.2901,-0.2938,-0.296,-0.3008,-0.3035,-0.3043,-0.308,-0.3087,-0.3104,-0.312,-0.3138,-0.3138,-0.3166,-0.3198,-0.3175,-0.3182,-0.3181,-0.318,-0.3145,-0.3106,-0.3096,-0.3203,-0.3203,-0.3202,0,0,-0.2788,-0.2835,-0.2854,-0.2931,-0.2964,-0.299,-0.3013,-0.3048,-0.3052,-0.3089,-0.3099,-0.313,-0.3152,-0.3165,-0.3172,-0.3167,-0.3145,-0.3183,-0.3181,-0.3146,-0.3107,-0.3096,-0.3086,-0.3204,-0.3204,-0.3203,0,0,-0.2782,-0.2835,-0.2858,-0.2894,-0.2947,-0.2979,-0.2987,-0.3048,-0.3049,-0.3095,-0.3101,-0.311,-0.3169,-0.315,-0.3154,-0.3176,-0.3151,-0.3194,-0.313,-0.3094,-0.3083,-0.3073,-0.3046,-0.3034,-0.3181,-0.3181,-0.3181,0,-0.276,-0.2809,-0.287,-0.2896,-0.2916,-0.2967,-0.2981,-0.3006,-0.3066,-0.3068,-0.3079,-0.3127,-0.3144,-0.3125,-0.312,-0.3163,-0.3151,-0.3126,-0.3086,-0.3076,-0.3066,-0.3041,-0.3028,-0.3179,-0.3179,-0.3179,-0.3179,0,-0.2772,-0.2802,-0.2816,-0.286,-0.2894,-0.2917,-0.2958,-0.2978,-0.3,-0.302,-0.3026,-0.3059,-0.3072,-0.3081,-0.3105,-0.3053,-0.3071,-0.3095,-0.3073,-0.3051,-0.3028,-0.3016,-0.3176,-0.3176,-0.3177,-0.3177,0,0,-0.2724,-0.2806,-0.2805,-0.2813,-0.2875,-0.2899,-0.2909,-0.2933,-0.2929,-0.2959,-0.2948,-0.2961,-0.2976,-0.2981,-0.3006,-0.2964,-0.2899,-0.2995,-0.2994,-0.2941,-0.2823,-0.2763,-0.2744,-0.2919,-0.2916,-0.2914,-0.2837,0,-0.2699,-0.2734,-0.2786,-0.2792,-0.2806,-0.2854,-0.2865,-0.2888,-0.2911,-0.2918,-0.2912,-0.2923,-0.2938,-0.2949,-0.2905,-0.2922,-0.2862,-0.2918,-0.2875,-0.2873,-0.2799,-0.2725,-0.2627,-0.2543,-0.2825,-0.2823,-0.2821,0,-0.2672,-0.2704,-0.2716,-0.2758,-0.2769,-0.2779,-0.28,-0.2816,-0.2833,-0.2856,-0.2843,-0.2867,-0.2822,-0.2846,-0.2778,-0.2819,-0.2797,-0.2789,-0.2787,-0.2727,-0.2787,-0.2611,-0.251,-0.2493,-0.2802,-0.2803,-0.2805,0,-0.2589,-0.264,-0.2644,-0.2659,-0.2723,-0.2725,-0.2751,-0.2783,-0.2789,-0.2803,-0.2811,-0.2785,-0.2773,-0.2733,-0.2722,-0.2751,-0.2648,-0.2694,-0.2602,-0.26,-0.25,-0.2492,-0.2342,-0.2597,-0.2597,-0.2597,-0.2597,0,-0.253,-0.2524,-0.2604,-0.2603,-0.2601,-0.2667,-0.2661,-0.2692,-0.2725,-0.272,-0.2759,-0.2738,-0.274,-0.2703,-0.2689,-0.2596,-0.2614,-0.2547,-0.2553,-0.2485,-0.2477,-0.2447,-0.2486,-0.2594,-0.2595,-0.2595,-0.2596,0,-0.2418,-0.2475,-0.2478,-0.2545,-0.2557,-0.255,-0.2602,-0.2602,-0.2654,-0.2647,-0.2648,-0.2678,-0.2634,-0.2626,-0.2573,-0.2539,-0.2429,-0.2438,-0.2363,-0.2358,-0.2249,-0.2291,-0.2141,-0.2082,-0.2309,-0.2307,-0.2305,0,-0.236,-0.2353,-0.2412,-0.241,-0.2432,-0.2446,-0.2457,-0.2538,-0.2551,-0.2598,-0.2583,-0.2561,-0.2521,-0.2429,-0.237,-0.2298,-0.2321,-0.2172,-0.2183,-0.2175,-0.2229,-0.2267,-0.2232,-0.2049,-0.2045,-0.2042,-0.2039,0,-0.2238,-0.2263,-0.2272,-0.228,-0.2288,-0.2298,-0.2329,-0.2335,-0.2426,-0.2429,-0.2422,-0.2393,-0.2335,-0.2214,-0.2139,-0.2092,-0.2118,-0.2103,-0.2101,-0.1985,-0.2008,-0.1978,-0.2197,-0.2011,-0.2014,-0.2016,-0.2018,-0.2019,-0.2128,-0.2113,-0.2132,-0.2119,-0.2135,-0.2124,-0.2083,-0.2143,-0.2132,-0.2123,-0.2209,-0.2142,-0.2115,-0.1981,-0.1927,-0.1814,-0.1889,-0.1777,-0.1823,-0.1859,-0.1793,-0.1943,-0.1768,-0.177,-0.1771,-0.1772,-0.1773,0,-0.1983,-0.198,-0.1969,-0.1954,-0.1907,-0.1967,-0.1969,-0.1913,-0.1857,-0.1913,-0.1892,-0.1866,-0.175,-0.174,-0.1645,-0.1569,-0.1543,-0.1548,-0.1578,-0.1551,-0.1667,-0.1646,-0.1427,-0.1427,-0.1427,-0.1428,-0.1428,-0.1428,-0.1906,-0.1845,-0.1846,-0.1718,-0.1703,-0.1597,-0.1563,-0.1517,-0.1525,-0.1469,-0.1486,-0.1536,-0.1557,-0.1662,-0.1553,-0.1475,-0.1457,-0.1406,-0.1445,-0.155,-0.1576,-0.16,-0.1585,-0.1358,-0.1358,-0.1261,-0.126,-0.126]},{"header":{"parameterUnit":"m.s-1","parameterCategory":2,"la1":30.2991,"la2":30.254,"lo1":-89.0895,"lo2":-89.0444,"dy":0.0017,"dx":0.0017,"nx":28,"ny":28,"refTime":"2023-10-05T21:00:00:Z","depth":"0","parameterNumber":3,"parameterNumberName":"V-component_of_CURRENTS"},"data":[0,0,0,0,0,0,0,0,0,0,0,0,0,0,0,0,0,0,0,0,0,0,0,0,0,0,0,0,0,0,0,0,0,0,0,0,0,0,0,0,0,0,0,0,0,0,0,0,0,0,0,0,0,0,0,0,0,0,-0.0195,-0.0194,0,-0.0055,-0.0053,-0.0052,0.0032,0.0032,0.0033,0.0033,0.0277,0.0283,0.0289,0,0,0,0,0,0,0,0,0,0,0,0,0,-0.0281,-0.028,-0.0195,-0.0194,-0.0192,-0.0055,-0.0053,-0.0051,0.0032,0.0032,0.0033,0.0033,0.0275,0.0282,0.029,0,0,0,0,0,0,0,0,0,0,0,0,0,-0.0201,-0.028,-0.0195,-0.0136,-0.0129,-0.0056,-0.0053,-0.005,0.0032,0.0033,0.0033,0.0033,0.0272,0.0282,0.0291,0.0345,0,0,0.032,0.0324,0,0,0,0,0,0,0,0,-0.0205,-0.0197,-0.0146,-0.014,-0.0132,-0.0031,0.0006,0.0086,0.0032,-0.0026,0.0033,0.0033,0.0182,0.0199,0.0227,0.0357,0.0367,0.0321,0.0327,0.0331,0.0333,0,0,0,0,0,0,0,-0.0211,-0.0202,-0.0137,-0.0145,-0.0136,-0.0079,-0.0068,0.0022,0.0079,-0.0021,-0.0015,-0.0004,0.0187,0.0217,0.0233,0.0371,0.0321,0.0329,0.0335,0.0339,0.055,0.0549,0,0,0,0,0,0,-0.024,-0.0208,-0.0142,-0.0133,-0.0172,-0.0078,-0.0066,-0.0062,0.0076,0.0095,-0.0004,-0.0001,0.0201,0.0222,0.0242,0.0291,0.0331,0.034,0.0345,0.055,0.0549,0.0549,0,0,0,0,0,0,-0.0242,-0.0235,-0.0147,-0.0169,-0.0154,-0.0078,-0.0073,-0.0059,-0.0032,0.0087,0.0109,0.0007,0.0202,0.0229,0.0314,0.0302,0.0344,0.0353,0.055,0.055,0.0549,0.0405,0,0,0,0,0,0,-0.0245,-0.0237,-0.0245,-0.0171,-0.0154,-0.0119,-0.0073,-0.0057,-0.0026,-0.002,0.0104,0.0127,0.0204,0.0299,0.0323,0.0316,0.036,0.055,0.055,0.0549,0.0409,0.0399,0.0391,0,0,0,0,0,-0.0249,-0.0266,-0.0246,-0.0238,-0.0167,-0.012,-0.0106,-0.0049,-0.0027,-0.0022,0.0064,0.0123,0.0315,0.0307,0.0336,0.0331,0.055,0.055,0.055,0.0414,0.0401,0.0391,0,0,0,0,0,0,-0.0307,-0.0257,-0.0234,-0.0234,-0.0188,-0.0108,-0.01,-0.0058,0.0012,0.0019,0.0131,0.016,0.0229,0.0303,0.0291,0.0391,0.0439,0.0445,0.0326,0.0316,0.0307,0.0291,0.0368,0,0,0,0,0,-0.0326,-0.0326,-0.0263,-0.0265,-0.0248,-0.0176,-0.015,-0.0112,-0.0041,-0.0011,0.0076,0.0169,0.0252,0.0299,0.0385,0.0445,0.0504,0.0459,0.0449,0.0441,0.0449,0.0508,0.0504,0.0549,0.0549,0.0549,0,0,-0.0348,-0.0322,-0.0321,-0.0278,-0.0238,-0.0219,-0.016,-0.0133,-0.0111,0.0008,0.0062,0.0144,0.0261,0.0323,0.036,0.0382,0.0457,0.0441,0.0432,0.0445,0.0507,0.0502,0.0498,0.0548,0.0548,0.0548,0,0,-0.0398,-0.0374,-0.0389,-0.0355,-0.0309,-0.0261,-0.026,-0.0186,-0.015,-0.0088,-0.0002,0.0069,0.0198,0.0272,0.0328,0.0324,0.0405,0.0348,0.0292,0.0347,0.0343,0.0341,0.0389,0.0393,0.0342,0.0341,0.0341,0,-0.0428,-0.0435,-0.0386,-0.0386,-0.0363,-0.0289,-0.0289,-0.0241,-0.0148,-0.0114,-0.0091,0.0086,0.0173,0.0259,0.0253,0.0301,0.0346,0.0317,0.0332,0.0331,0.0331,0.0382,0.0387,0.0334,0.0335,0.0336,0.0337,0,-0.048,-0.0481,-0.0488,-0.0463,-0.0433,-0.0423,-0.0352,-0.032,-0.0269,-0.0208,-0.0123,-0.0011,0.0096,0.0123,0.0191,0.0238,0.0272,0.0308,0.035,0.0317,0.0374,0.0381,0.0324,0.0327,0.0329,0.0331,0,0,-0.0549,-0.053,-0.0531,-0.053,-0.0471,-0.0452,-0.0421,-0.0361,-0.0334,-0.0255,-0.0207,-0.0088,-0.0027,0.0042,0.0126,0.0173,0.0199,0.023,0.0236,0.026,0.0316,0.0374,0.039,0.023,0.0231,0.0232,0.0347,0,-0.06,-0.0629,-0.0595,-0.0606,-0.0607,-0.0532,-0.0503,-0.0438,-0.0371,-0.0308,-0.0201,-0.0121,-0.0058,-0.0011,0.0042,0.0179,0.0218,0.0165,0.0363,0.0369,0.0409,0.04,0.0445,0.0555,0.0356,0.0357,0.0358,0,-0.0652,-0.0663,-0.0691,-0.0667,-0.066,-0.065,-0.0586,-0.0551,-0.0443,-0.0389,-0.0302,-0.0205,-0.01,-0.0058,0.0124,0.0087,0.0186,0.0273,0.028,0.0397,0.0443,0.0564,0.0579,0.0727,0.0372,0.037,0.037,0,-0.0717,-0.0724,-0.0752,-0.0742,-0.0705,-0.0698,-0.0668,-0.0575,-0.054,-0.0437,-0.0396,-0.026,-0.0178,-0.0048,0.0141,0.0132,0.0335,0.035,0.0489,0.0494,0.0608,0.0621,0.078,0.0455,0.0455,0.0455,0.0454,0,-0.0776,-0.0795,-0.0787,-0.0801,-0.082,-0.0762,-0.0753,-0.0701,-0.0616,-0.0566,-0.0444,-0.0368,-0.0172,-0.0023,0.0124,0.0344,0.0325,0.0488,0.0533,0.0557,0.0565,0.0762,0.0808,0.0459,0.0458,0.0457,0.0456,0,-0.0837,-0.0834,-0.0867,-0.0857,-0.0854,-0.0864,-0.0822,-0.0806,-0.0719,-0.0651,-0.0621,-0.0437,-0.023,-0.0031,0.0209,0.0337,0.0631,0.0602,0.0616,0.0661,0.092,0.0955,0.1164,0.1266,0.0771,0.0774,0.0775,0,-0.0871,-0.0897,-0.0922,-0.0943,-0.0944,-0.0946,-0.0941,-0.0868,-0.0839,-0.068,-0.0648,-0.0437,-0.0257,0.0113,0.0376,0.0646,0.0744,0.0824,0.0818,0.0952,0.1025,0.104,0.111,0.0904,0.0907,0.0909,0.0911,0,-0.0929,-0.0941,-0.097,-0.102,-0.1038,-0.1052,-0.1034,-0.1023,-0.0914,-0.0822,-0.0651,-0.0492,-0.0114,0.0245,0.0589,0.0741,0.0941,0.0878,0.1025,0.1153,0.1175,0.1288,0.08,0.0931,0.0929,0.0928,0.0927,0.0926,-0.0964,-0.1005,-0.1044,-0.1087,-0.1114,-0.1131,-0.1121,-0.1071,-0.0994,-0.0812,-0.0657,-0.0361,0.0132,0.0648,0.0828,0.1199,0.1136,0.1295,0.1329,0.1334,0.1432,0.0983,0.1158,0.1157,0.1156,0.1156,0.1155,0,-0.1,-0.1045,-0.11,-0.1147,-0.1181,-0.1179,-0.1157,-0.1103,-0.099,-0.0785,-0.0569,0.0021,0.05,0.0926,0.1445,0.1638,0.1677,0.1715,0.1752,0.1806,0.1431,0.1439,0.1673,0.1673,0.1673,0.1672,0.1672,0.1672,-0.1018,-0.1084,-0.1118,-0.1182,-0.121,-0.1211,-0.1188,-0.1077,-0.0915,-0.0542,-0.0191,0.0103,0.0711,0.1522,0.1987,0.2019,0.2186,0.2154,0.2247,0.1986,0.1949,0.1913,0.1934,0.2268,0.2269,0.2625,0.2628,0.2631]}],[{"header":{"parameterUnit":"m.s-1","parameterCategory":2,"la1":30.2991,"la2":30.254,"lo1":-89.0895,"lo2":-89.0444,"dy":0.0017,"dx":0.0017,"nx":28,"ny":28,"refTime":"2023-10-05T21:00:00:Z","depth":"2","parameterNumber":2,"parameterNumberName":"U-component_of_CURRENTS"},"data":[0,0,0,0,0,0,0,0,0,0,0,0,0,0,0,0,0,0,0,0,0,0,0,0,0,0,0,0,0,0,0,0,0,0,0,0,0,0,0,0,0,0,0,0,0,0,0,0,0,0,0,0,0,0,0,0,0,0,-0.2467,-0.2468,0,-0.2509,-0.251,-0.251,-0.247,-0.2468,-0.2467,-0.2466,-0.2481,-0.2482,-0.2484,0,0,0,0,0,0,0,0,0,0,0,0,0,-0.234,-0.2342,-0.2467,-0.2468,-0.2468,-0.2509,-0.251,-0.251,-0.247,-0.2468,-0.2467,-0.2465,-0.248,-0.2482,-0.2484,0,0,0,0,0,0,0,0,0,0,0,0,0,-0.2386,-0.2343,-0.2467,-0.2456,-0.2456,-0.2509,-0.251,-0.251,-0.247,-0.2468,-0.2466,-0.2465,-0.248,-0.2482,-0.2484,-0.2537,0,0,-0.2492,-0.2493,0,0,0,0,0,0,0,0,-0.2384,-0.2391,-0.2457,-0.2457,-0.2457,-0.2485,-0.2471,-0.2519,-0.2471,-0.2461,-0.2466,-0.2464,-0.2484,-0.2486,-0.2493,-0.2538,-0.2539,-0.2492,-0.2493,-0.2494,-0.2495,0,0,0,0,0,0,0,-0.2381,-0.2389,-0.248,-0.2458,-0.2458,-0.2446,-0.245,-0.2479,-0.2479,-0.2462,-0.246,-0.2471,-0.2483,-0.2491,-0.2493,-0.2539,-0.2492,-0.2494,-0.2495,-0.2496,-0.2602,-0.2603,0,0,0,0,0,0,-0.2386,-0.2386,-0.2479,-0.2482,-0.2419,-0.245,-0.2455,-0.2475,-0.2479,-0.2479,-0.2473,-0.2469,-0.2488,-0.249,-0.2494,-0.2515,-0.2494,-0.2497,-0.2498,-0.2601,-0.2602,-0.2604,0,0,0,0,0,0,-0.2383,-0.2394,-0.2477,-0.2437,-0.2447,-0.2455,-0.2478,-0.2477,-0.2482,-0.2489,-0.2487,-0.2478,-0.2486,-0.249,-0.2517,-0.2517,-0.2498,-0.25,-0.2599,-0.2601,-0.2603,-0.2586,0,0,0,0,0,0,-0.238,-0.2393,-0.2407,-0.2438,-0.2449,-0.2506,-0.248,-0.248,-0.2494,-0.249,-0.2494,-0.2493,-0.2485,-0.2514,-0.252,-0.252,-0.2502,-0.2597,-0.26,-0.2603,-0.2584,-0.2587,-0.2589,0,0,0,0,0,-0.2375,-0.2397,-0.2407,-0.2418,-0.2469,-0.2507,-0.2511,-0.2507,-0.2497,-0.2504,-0.2506,-0.2493,-0.2534,-0.2517,-0.2524,-0.2524,-0.2596,-0.2599,-0.2602,-0.2583,-0.2586,-0.2589,0,0,0,0,0,0,-0.2343,-0.2397,-0.2408,-0.2444,-0.2474,-0.2501,-0.2508,-0.2517,-0.2527,-0.2518,-0.2517,-0.2518,-0.2537,-0.255,-0.2531,-0.2566,-0.2562,-0.2566,-0.2545,-0.2548,-0.255,-0.252,-0.2504,0,0,0,0,0,-0.2349,-0.2375,-0.2426,-0.245,-0.2469,-0.2493,-0.2508,-0.2513,-0.2531,-0.2532,-0.254,-0.255,-0.256,-0.2567,-0.2582,-0.2613,-0.2592,-0.2619,-0.2621,-0.2622,-0.2606,-0.2577,-0.2573,-0.2614,-0.2614,-0.2614,0,0,-0.234,-0.2373,-0.2387,-0.2444,-0.2463,-0.2491,-0.2495,-0.2522,-0.2532,-0.2536,-0.2549,-0.2561,-0.2572,-0.259,-0.26,-0.2596,-0.2605,-0.2626,-0.2627,-0.2609,-0.2579,-0.2575,-0.2571,-0.2616,-0.2616,-0.2616,0,0,-0.233,-0.237,-0.2388,-0.2422,-0.2466,-0.2488,-0.25,-0.254,-0.2543,-0.2578,-0.2569,-0.2578,-0.2618,-0.2605,-0.2608,-0.2641,-0.2617,-0.266,-0.2643,-0.2616,-0.2611,-0.2606,-0.2582,-0.2575,-0.266,-0.266,-0.266,0,-0.2312,-0.235,-0.2397,-0.2424,-0.2445,-0.2487,-0.2507,-0.2528,-0.2568,-0.257,-0.2578,-0.2606,-0.2615,-0.2609,-0.2615,-0.2639,-0.2625,-0.2625,-0.2613,-0.2608,-0.2604,-0.258,-0.2573,-0.2659,-0.2659,-0.2659,-0.2659,0,-0.232,-0.235,-0.2363,-0.2411,-0.2443,-0.2468,-0.2514,-0.2537,-0.2557,-0.2572,-0.2585,-0.2599,-0.2606,-0.2619,-0.2625,-0.2606,-0.2608,-0.2615,-0.2594,-0.2597,-0.2574,-0.2566,-0.2658,-0.2659,-0.2659,-0.2659,0,0,-0.2268,-0.2351,-0.2353,-0.2371,-0.2438,-0.2461,-0.2491,-0.2523,-0.253,-0.2563,-0.2561,-0.2576,-0.2581,-0.2585,-0.2594,-0.2574,-0.2535,-0.2582,-0.2581,-0.2535,-0.2476,-0.2407,-0.2392,-0.2539,-0.2538,-0.2537,-0.2474,0,-0.225,-0.2292,-0.2342,-0.2368,-0.2391,-0.2446,-0.247,-0.2504,-0.2532,-0.2548,-0.2552,-0.2561,-0.257,-0.2575,-0.2553,-0.2548,-0.2514,-0.2551,-0.2499,-0.2497,-0.2415,-0.238,-0.2222,-0.2145,-0.2466,-0.2465,-0.2464,0,-0.2228,-0.2265,-0.229,-0.2348,-0.2363,-0.2386,-0.2426,-0.2454,-0.249,-0.2513,-0.2518,-0.2535,-0.2518,-0.2528,-0.248,-0.2507,-0.2481,-0.2469,-0.2466,-0.2395,-0.2412,-0.2195,-0.2119,-0.2451,-0.2452,-0.2453,-0.2454,0,-0.2151,-0.2217,-0.2231,-0.2254,-0.2333,-0.2346,-0.2383,-0.2431,-0.2448,-0.2483,-0.2497,-0.2492,-0.2485,-0.2457,-0.2441,-0.246,-0.2383,-0.2407,-0.2312,-0.2308,-0.2156,-0.214,-0.2343,-0.2343,-0.2343,-0.2344,-0.2344,0,-0.2101,-0.211,-0.2197,-0.2206,-0.2222,-0.2295,-0.2309,-0.2352,-0.24,-0.241,-0.2461,-0.2457,-0.2465,-0.2437,-0.2421,-0.2334,-0.236,-0.2282,-0.2273,-0.2149,-0.2134,-0.2392,-0.2398,-0.2341,-0.2342,-0.2342,-0.2343,0,-0.2001,-0.2061,-0.2082,-0.2163,-0.2182,-0.2191,-0.2263,-0.2276,-0.2339,-0.2353,-0.2362,-0.2409,-0.2376,-0.2371,-0.2325,-0.2289,-0.2234,-0.2194,-0.2051,-0.2024,-0.2185,-0.2192,-0.2075,-0.2072,-0.2069,-0.2066,-0.2065,0,-0.1952,-0.1953,-0.2029,-0.2038,-0.207,-0.2105,-0.2128,-0.222,-0.2245,-0.2313,-0.2309,-0.2304,-0.2269,-0.2186,-0.2124,-0.205,-0.2139,-0.1873,-0.1868,-0.2147,-0.2151,-0.2162,-0.2173,-0.1669,-0.1664,-0.166,-0.1657,0,-0.185,-0.1878,-0.1899,-0.1927,-0.1952,-0.1978,-0.2027,-0.2038,-0.2141,-0.2151,-0.2156,-0.2132,-0.208,-0.1927,-0.185,-0.1799,-0.1877,-0.1786,-0.2084,-0.177,-0.1761,-0.1767,-0.179,-0.162,-0.1624,-0.1626,-0.1628,-0.163,-0.176,-0.1754,-0.1784,-0.1793,-0.1825,-0.1827,-0.1799,-0.1863,-0.1861,-0.1856,-0.194,-0.1852,-0.1854,-0.1633,-0.155,-0.1491,-0.1624,-0.1565,-0.1579,-0.1597,-0.1569,-0.1556,-0.1372,-0.1374,-0.1376,-0.1378,-0.1379,0,-0.1639,-0.1643,-0.1649,-0.1655,-0.1629,-0.1692,-0.1706,-0.1655,-0.1603,-0.1634,-0.1606,-0.1434,-0.133,-0.1339,-0.1181,-0.1157,-0.1159,-0.112,-0.1126,-0.1162,-0.1194,-0.1148,-0.0838,-0.0837,-0.0835,-0.0834,0,0,-0.1576,-0.1533,-0.1538,-0.1449,-0.145,-0.1367,-0.1339,-0.1288,-0.1277,-0.1185,-0.1145,-0.1241,-0.1284,-0.1056,-0.101,-0.0893,-0.1018,-0.0849,-0.1282,-0.1323,-0.1354,-0.1448,-0.1416,0,0,0,0,0]},{"header":{"parameterUnit":"m.s-1","parameterCategory":2,"la1":30.2991,"la2":30.254,"lo1":-89.0895,"lo2":-89.0444,"dy":0.0017,"dx":0.0017,"nx":28,"ny":28,"refTime":"2023-10-05T21:00:00:Z","depth":"2","parameterNumber":3,"parameterNumberName":"V-component_of_CURRENTS"},"data":[0,0,0,0,0,0,0,0,0,0,0,0,0,0,0,0,0,0,0,0,0,0,0,0,0,0,0,0,0,0,0,0,0,0,0,0,0,0,0,0,0,0,0,0,0,0,0,0,0,0,0,0,0,0,0,0,0,0,-0.0242,-0.0241,0,-0.015,-0.0149,-0.0147,-0.008,-0.008,-0.0079,-0.0079,0.0086,0.009,0.0094,0,0,0,0,0,0,0,0,0,0,0,0,0,-0.0291,-0.0291,-0.0242,-0.0241,-0.024,-0.015,-0.0149,-0.0147,-0.008,-0.008,-0.0079,-0.0079,0.0085,0.009,0.0094,0,0,0,0,0,0,0,0,0,0,0,0,0,-0.0241,-0.0291,-0.0242,-0.0196,-0.0191,-0.015,-0.0148,-0.0147,-0.008,-0.008,-0.0079,-0.0078,0.0083,0.0089,0.0095,0.0117,0,0,0.0113,0.0116,0,0,0,0,0,0,0,0,-0.0244,-0.0239,-0.0204,-0.0199,-0.0194,-0.0127,-0.0105,-0.0055,-0.0081,-0.0121,-0.0079,-0.0078,0.0021,0.0032,0.0048,0.0125,0.0132,0.0114,0.0117,0.012,0.0121,0,0,0,0,0,0,0,-0.0247,-0.0242,-0.0204,-0.0203,-0.0197,-0.0157,-0.0149,-0.0095,-0.0053,-0.0118,-0.0113,-0.0105,0.0024,0.0042,0.0053,0.0135,0.0114,0.0119,0.0122,0.0125,0.0263,0.0264,0,0,0,0,0,0,-0.0265,-0.0246,-0.0207,-0.0202,-0.0219,-0.0157,-0.0149,-0.0148,-0.0055,-0.0041,-0.0105,-0.0102,0.0032,0.0046,0.0059,0.0101,0.012,0.0125,0.0129,0.0263,0.0263,0.0264,0,0,0,0,0,0,-0.0267,-0.0263,-0.0211,-0.0222,-0.0212,-0.0158,-0.0157,-0.0147,-0.0129,-0.0047,-0.0031,-0.0099,0.0033,0.005,0.0103,0.0107,0.0128,0.0133,0.0263,0.0263,0.0263,0.0179,0,0,0,0,0,0,-0.0269,-0.0264,-0.0272,-0.0223,-0.0213,-0.0194,-0.0157,-0.0145,-0.0126,-0.012,-0.0036,-0.002,0.0035,0.0093,0.0108,0.0116,0.0138,0.0263,0.0263,0.0263,0.0181,0.0176,0.0172,0,0,0,0,0,-0.0271,-0.0289,-0.0274,-0.0269,-0.0225,-0.0195,-0.0186,-0.0143,-0.0126,-0.0124,-0.0067,-0.0023,0.0106,0.0098,0.0116,0.0125,0.0263,0.0263,0.0263,0.0184,0.0177,0.0172,0,0,0,0,0,0,-0.0316,-0.0282,-0.0265,-0.0272,-0.0239,-0.0184,-0.0182,-0.0152,-0.0106,-0.0101,-0.0023,-0.0003,0.0043,0.0095,0.0084,0.0166,0.0193,0.0197,0.0126,0.0121,0.0116,0.0104,0.0143,0,0,0,0,0,-0.0331,-0.0336,-0.0291,-0.0299,-0.0286,-0.0236,-0.022,-0.0191,-0.0144,-0.0124,-0.0064,0.0002,0.0058,0.0095,0.0149,0.0195,0.024,0.0214,0.0209,0.0205,0.0207,0.027,0.0271,0.0264,0.0264,0.0264,0,0,-0.0351,-0.0334,-0.0336,-0.0309,-0.0281,-0.0268,-0.0224,-0.0208,-0.019,-0.0112,-0.0074,-0.0019,0.0063,0.0111,0.0138,0.0157,0.0228,0.0205,0.02,0.0206,0.027,0.0271,0.0271,0.0265,0.0265,0.0265,0,0,-0.0395,-0.0379,-0.0395,-0.037,-0.0337,-0.0302,-0.0302,-0.025,-0.022,-0.0181,-0.0119,-0.0062,0.0021,0.0085,0.0128,0.013,0.0191,0.0146,0.0124,0.0183,0.0184,0.0186,0.0229,0.0235,0.0153,0.0153,0.0153,0,-0.0419,-0.043,-0.0395,-0.0397,-0.038,-0.0323,-0.0325,-0.0288,-0.0224,-0.0195,-0.018,-0.0052,0.0012,0.0088,0.0089,0.012,0.0155,0.0135,0.0175,0.0178,0.0181,0.0225,0.0233,0.0149,0.015,0.015,0.015,0,-0.0466,-0.047,-0.0478,-0.046,-0.0437,-0.0432,-0.0373,-0.0347,-0.0308,-0.0258,-0.0189,-0.0105,-0.0023,0.0005,0.0049,0.0107,0.0124,0.0151,0.0185,0.0176,0.0224,0.0233,0.0143,0.0145,0.0146,0.0147,0,0,-0.0527,-0.0516,-0.0516,-0.0516,-0.0468,-0.0455,-0.0425,-0.0374,-0.0349,-0.0283,-0.0239,-0.0142,-0.0092,-0.004,0.0027,0.0084,0.0129,0.012,0.0125,0.0152,0.0247,0.0275,0.0289,0.0158,0.0159,0.016,0.0266,0,-0.0571,-0.0598,-0.0571,-0.058,-0.0582,-0.0519,-0.0492,-0.0435,-0.0377,-0.0321,-0.0223,-0.016,-0.0108,-0.0071,-0.0007,0.01,0.0153,0.0097,0.0263,0.0267,0.0285,0.03,0.0261,0.0354,0.0276,0.0278,0.0279,0,-0.0618,-0.0628,-0.0653,-0.0632,-0.0626,-0.0618,-0.056,-0.0529,-0.043,-0.0384,-0.0301,-0.0223,-0.0116,-0.0084,0.009,0.0049,0.0137,0.0214,0.022,0.0285,0.0314,0.0356,0.0375,0.0296,0.0294,0.0293,0.0292,0,-0.0674,-0.068,-0.0705,-0.0697,-0.0665,-0.0659,-0.0632,-0.0549,-0.0517,-0.0422,-0.0385,-0.0254,-0.0183,-0.0055,0.0106,0.0098,0.0288,0.0302,0.0408,0.041,0.0432,0.0434,0.0412,0.0412,0.0412,0.0411,0.0411,0,-0.0725,-0.0742,-0.0737,-0.075,-0.0767,-0.0716,-0.0708,-0.066,-0.0583,-0.0538,-0.0424,-0.0355,-0.0173,-0.0039,0.0096,0.0286,0.0285,0.0411,0.0447,0.04,0.0398,0.0395,0.0391,0.0415,0.0414,0.0414,0.0413,0,-0.0778,-0.0777,-0.0807,-0.0799,-0.0798,-0.0808,-0.0773,-0.0758,-0.0677,-0.0616,-0.0588,-0.0422,-0.0239,-0.0057,0.0164,0.0277,0.0451,0.0512,0.0437,0.0463,0.0531,0.0522,0.0644,0.0646,0.0648,0.0649,0.065,0,-0.0809,-0.0832,-0.0858,-0.0879,-0.0882,-0.0886,-0.0883,-0.0816,-0.079,-0.0646,-0.0617,-0.0434,-0.028,0.0047,0.0271,0.051,0.0506,0.0599,0.0587,0.0536,0.0559,0.0547,0.0536,0.0575,0.0576,0.0576,0.0577,0,-0.0861,-0.0874,-0.09,-0.095,-0.097,-0.0984,-0.097,-0.0961,-0.0861,-0.0782,-0.0634,-0.0499,-0.0182,0.0089,0.0384,0.0511,0.0559,0.0616,0.0604,0.0519,0.048,0.0499,0.0489,0.058,0.058,0.058,0.0579,0.0579,-0.0893,-0.093,-0.0969,-0.1012,-0.1041,-0.1059,-0.1052,-0.101,-0.0946,-0.0789,-0.0658,-0.0419,-0.0171,0.0266,0.0464,0.0635,0.0639,0.0677,0.0672,0.0668,0.0638,0.0603,0.0721,0.0721,0.0721,0.0722,0.0722,0,-0.0926,-0.0968,-0.1021,-0.1068,-0.1103,-0.1104,-0.1088,-0.104,-0.0948,-0.0785,-0.0606,-0.0302,0.0002,0.0252,0.054,0.0712,0.068,0.0719,0.0648,0.0643,0.064,0.0605,0.0681,0.0681,0.0682,0.0682,0,0,-0.0943,-0.1004,-0.1036,-0.11,-0.1131,-0.1139,-0.1121,-0.1026,-0.0896,-0.0711,-0.0526,-0.0281,0.0026,0.0224,0.0427,0.0568,0.0554,0.0565,0.0579,0.0466,0.046,0.0597,0.0537,0,0,0,0,0]}],[{"header":{"parameterUnit":"m.s-1","parameterCategory":2,"la1":30.2991,"la2":30.254,"lo1":-89.0895,"lo2":-89.0444,"dy":0.0017,"dx":0.0017,"nx":28,"ny":28,"refTime":"2023-10-05T21:00:00:Z","depth":"4","parameterNumber":2,"parameterNumberName":"U-component_of_CURRENTS"},"data":[0,0,0,0,0,0,0,0,0,0,0,0,0,0,0,0,0,0,0,0,0,0,0,0,0,0,0,0,0,0,0,0,0,0,0,0,0,0,0,0,0,0,0,0,0,0,0,0,0,0,0,0,0,0,0,0,0,0,-0.167,-0.1671,0,-0.1725,-0.1725,-0.1725,-0.175,-0.175,-0.1751,-0.1751,-0.1756,-0.1756,-0.1756,0,0,0,0,0,0,0,0,0,0,0,0,0,-0.1555,-0.1556,-0.167,-0.1671,-0.1673,-0.1725,-0.1725,-0.1725,-0.175,-0.175,-0.1751,-0.1751,-0.1757,-0.1756,-0.1756,0,0,0,0,0,0,0,0,0,0,0,0,0,-0.1602,-0.1557,-0.167,-0.1695,-0.1698,-0.1725,-0.1725,-0.1725,-0.175,-0.175,-0.1751,-0.1752,-0.1757,-0.1756,-0.1756,-0.1742,0,0,-0.1755,-0.1755,0,0,0,0,0,0,0,0,-0.1599,-0.1606,-0.169,-0.1693,-0.1697,-0.1735,-0.1686,-0.173,-0.175,-0.1725,-0.1751,-0.1752,-0.1748,-0.1748,-0.1751,-0.1742,-0.1742,-0.1755,-0.1755,-0.1754,-0.1754,0,0,0,0,0,0,0,-0.1596,-0.1603,-0.1687,-0.1691,-0.1695,-0.1692,-0.1699,-0.1694,-0.1728,-0.1727,-0.173,-0.1744,-0.1748,-0.1751,-0.1751,-0.1742,-0.1755,-0.1755,-0.1754,-0.1754,-0.1818,-0.182,0,0,0,0,0,0,-0.1601,-0.16,-0.1685,-0.1689,-0.1654,-0.1694,-0.1702,-0.1718,-0.1729,-0.1733,-0.1743,-0.1745,-0.1751,-0.1751,-0.1751,-0.1812,-0.1754,-0.1754,-0.1754,-0.1816,-0.1819,-0.1821,0,0,0,0,0,0,-0.1598,-0.1608,-0.1683,-0.1649,-0.1659,-0.1696,-0.1714,-0.1719,-0.1754,-0.1743,-0.1745,-0.1777,-0.1752,-0.1752,-0.178,-0.181,-0.1754,-0.1754,-0.1814,-0.1817,-0.182,-0.1884,0,0,0,0,0,0,-0.1594,-0.1606,-0.1628,-0.165,-0.1662,-0.1721,-0.1714,-0.172,-0.1762,-0.1765,-0.1772,-0.1771,-0.1752,-0.1781,-0.178,-0.1808,-0.1753,-0.1812,-0.1815,-0.1819,-0.188,-0.1889,-0.1897,0,0,0,0,0,-0.159,-0.1611,-0.1629,-0.164,-0.1688,-0.1722,-0.1728,-0.1752,-0.1763,-0.1784,-0.1794,-0.1772,-0.1803,-0.1783,-0.1781,-0.1809,-0.181,-0.1814,-0.1819,-0.1876,-0.1887,-0.1897,0,0,0,0,0,0,-0.157,-0.1617,-0.1636,-0.1671,-0.1708,-0.1729,-0.1751,-0.1772,-0.1796,-0.1805,-0.1792,-0.1792,-0.1828,-0.1815,-0.1793,-0.1841,-0.1805,-0.1809,-0.1849,-0.186,-0.1868,-0.1848,-0.1753,0,0,0,0,0,-0.1578,-0.1606,-0.1651,-0.1679,-0.1703,-0.1735,-0.1756,-0.1778,-0.18,-0.1813,-0.1823,-0.1832,-0.1838,-0.1848,-0.185,-0.1875,-0.1843,-0.1895,-0.1904,-0.1911,-0.1896,-0.1882,-0.1886,-0.1835,-0.1835,-0.1835,0,0,-0.1578,-0.1607,-0.1624,-0.1678,-0.1705,-0.174,-0.1749,-0.1793,-0.1822,-0.1807,-0.1855,-0.1862,-0.1853,-0.1882,-0.1897,-0.1878,-0.1914,-0.1916,-0.1922,-0.1903,-0.1886,-0.1891,-0.1895,-0.1838,-0.1837,-0.1837,0,0,-0.1577,-0.1622,-0.1643,-0.1681,-0.1737,-0.176,-0.1783,-0.1832,-0.1859,-0.1906,-0.1901,-0.1928,-0.195,-0.1945,-0.1942,-0.2,-0.1959,-0.2016,-0.2042,-0.2029,-0.2032,-0.2035,-0.2013,-0.2013,-0.2021,-0.2021,-0.2021,0,-0.1577,-0.1612,-0.1655,-0.1688,-0.1721,-0.1774,-0.1807,-0.1841,-0.1896,-0.1913,-0.1933,-0.197,-0.1972,-0.1984,-0.2012,-0.2016,-0.2,-0.2001,-0.2038,-0.2039,-0.204,-0.2017,-0.2016,-0.2025,-0.2025,-0.2024,-0.2024,0,-0.1587,-0.163,-0.1648,-0.1707,-0.1748,-0.1788,-0.1846,-0.1893,-0.194,-0.1967,-0.2014,-0.2027,-0.2041,-0.2062,-0.2055,-0.2074,-0.2057,-0.2047,-0.2004,-0.2049,-0.2023,-0.2021,-0.203,-0.2029,-0.2028,-0.2027,0,0,-0.1544,-0.1637,-0.1646,-0.1679,-0.1765,-0.1795,-0.1857,-0.1913,-0.1945,-0.201,-0.204,-0.2078,-0.2091,-0.209,-0.2095,-0.2097,-0.2107,-0.2085,-0.2083,-0.2051,-0.2075,-0.1945,-0.1929,-0.2107,-0.2106,-0.2106,-0.2057,0,-0.1539,-0.1596,-0.1648,-0.1708,-0.1743,-0.1817,-0.1865,-0.1926,-0.1979,-0.2024,-0.2054,-0.2086,-0.21,-0.2117,-0.2122,-0.2109,-0.2102,-0.2121,-0.2047,-0.2044,-0.1911,-0.1922,-0.2106,-0.2055,-0.2055,-0.2054,-0.2054,0,-0.1523,-0.1569,-0.1624,-0.171,-0.1734,-0.1781,-0.1863,-0.1912,-0.1984,-0.2025,-0.2065,-0.2089,-0.2112,-0.2119,-0.2106,-0.212,-0.2099,-0.2088,-0.2086,-0.193,-0.1907,-0.2,-0.2049,-0.2049,-0.2049,-0.205,-0.205,0,-0.1453,-0.1546,-0.1588,-0.1621,-0.1729,-0.177,-0.1829,-0.191,-0.1948,-0.2022,-0.2051,-0.2084,-0.2099,-0.2091,-0.2083,-0.2097,-0.2053,-0.2062,-0.192,-0.1911,-0.2015,-0.2013,-0.2034,-0.2034,-0.2034,-0.2034,-0.2034,0,-0.1407,-0.1446,-0.1565,-0.1589,-0.1645,-0.1735,-0.1792,-0.1856,-0.1934,-0.1962,-0.2041,-0.2052,-0.2095,-0.2084,-0.2073,-0.1976,-0.2039,-0.1906,-0.1882,-0.2048,-0.205,-0.2014,-0.2012,-0.2032,-0.2033,-0.2033,-0.2033,0,-0.1316,-0.1395,-0.1453,-0.1574,-0.1611,-0.1653,-0.1769,-0.1802,-0.1892,-0.1929,-0.1953,-0.2021,-0.2001,-0.2016,-0.1992,-0.1936,-0.1877,-0.1827,-0.1995,-0.1985,-0.175,-0.1753,-0.1655,-0.165,-0.1646,-0.1642,-0.1639,0,-0.1272,-0.1292,-0.1422,-0.1458,-0.1517,-0.1597,-0.1645,-0.1762,-0.1797,-0.189,-0.1889,-0.1908,-0.1935,-0.1783,-0.1827,-0.1765,-0.1751,-0.1712,-0.1735,-0.1721,-0.1708,-0.1718,-0.1726,-0.1632,-0.1631,-0.1629,-0.1628,0,-0.1184,-0.1241,-0.129,-0.1365,-0.1428,-0.1484,-0.1566,-0.1574,-0.1692,-0.1793,-0.1761,-0.1739,-0.1704,-0.168,-0.1634,-0.1604,-0.1735,-0.1666,-0.1675,-0.1697,-0.1691,-0.1685,-0.1699,-0.1613,-0.1615,-0.1617,-0.1618,0,-0.1117,-0.1132,-0.1201,-0.1251,-0.1326,-0.1343,-0.1405,-0.144,-0.1483,-0.1602,-0.1584,-0.1613,-0.1678,-0.1594,-0.1562,-0.1507,-0.1491,-0.1452,-0.1473,-0.149,-0.146,-0.143,-0.123,0,0,0,0,0,-0.1044,-0.1044,-0.1083,-0.1132,-0.1198,-0.1234,-0.1336,-0.1403,-0.1522,-0.1452,-0.1513,-0.1477,-0.1421,-0.1445,-0.135,-0.1488,-0.1498,-0.1374,-0.1466,-0.1528,-0.1546,-0.1526,0,0,0,0,0,0,-0.0996,-0.1024,-0.1038,-0.1012,-0.1018,-0.1072,-0.1126,-0.1208,-0.1187,-0.1311,-0.1282,-0.1379,-0.1341,-0.1432,-0.1312,-0.1319,-0.1344,-0.1409,-0.1405,-0.1518,-0.1534,-0.1548,-0.1535,0,0,0,0,0]},{"header":{"parameterUnit":"m.s-1","parameterCategory":2,"la1":30.2991,"la2":30.254,"lo1":-89.0895,"lo2":-89.0444,"dy":0.0017,"dx":0.0017,"nx":28,"ny":28,"refTime":"2023-10-05T21:00:00:Z","depth":"4","parameterNumber":3,"parameterNumberName":"V-component_of_CURRENTS"},"data":[0,0,0,0,0,0,0,0,0,0,0,0,0,0,0,0,0,0,0,0,0,0,0,0,0,0,0,0,0,0,0,0,0,0,0,0,0,0,0,0,0,0,0,0,0,0,0,0,0,0,0,0,0,0,0,0,0,0,-0.0188,-0.0187,0,-0.0142,-0.0141,-0.0141,-0.0096,-0.0095,-0.0095,-0.0094,-0.0009,-0.0007,-0.0006,0,0,0,0,0,0,0,0,0,0,0,0,0,-0.02,-0.02,-0.0188,-0.0187,-0.0187,-0.0142,-0.0141,-0.014,-0.0096,-0.0095,-0.0094,-0.0094,-0.001,-0.0008,-0.0006,0,0,0,0,0,0,0,0,0,0,0,0,0,-0.0178,-0.0201,-0.0188,-0.0159,-0.0156,-0.0142,-0.0141,-0.014,-0.0096,-0.0095,-0.0094,-0.0093,-0.001,-0.0008,-0.0005,-0.0005,0,0,0.0003,0.0004,0,0,0,0,0,0,0,0,-0.018,-0.0178,-0.0164,-0.0161,-0.0158,-0.0124,-0.0114,-0.0093,-0.0096,-0.0118,-0.0094,-0.0093,-0.0045,-0.0039,-0.0032,-0.0001,0.0003,0.0003,0.0005,0.0006,0.0007,0,0,0,0,0,0,0,-0.0181,-0.0179,-0.0169,-0.0164,-0.016,-0.0136,-0.0133,-0.011,-0.0085,-0.0116,-0.0113,-0.0109,-0.0043,-0.0035,-0.003,0.0004,0.0003,0.0005,0.0007,0.0008,0.0069,0.0069,0,0,0,0,0,0,-0.0191,-0.0181,-0.017,-0.0168,-0.0168,-0.0137,-0.0133,-0.0135,-0.0086,-0.0079,-0.011,-0.0107,-0.004,-0.0033,-0.0027,0.0,0.0006,0.0008,0.001,0.0069,0.0069,0.0069,0,0,0,0,0,0,-0.0192,-0.0191,-0.0172,-0.0173,-0.0169,-0.0138,-0.0141,-0.0135,-0.0127,-0.0082,-0.0073,-0.0109,-0.0039,-0.003,-0.0006,0.0003,0.001,0.0012,0.0069,0.0069,0.0069,0.0039,0,0,0,0,0,0,-0.0192,-0.0191,-0.02,-0.0174,-0.017,-0.0167,-0.0142,-0.0135,-0.0126,-0.0122,-0.0078,-0.0069,-0.0038,-0.001,-0.0004,0.0007,0.0014,0.0069,0.0069,0.0069,0.004,0.0038,0.0037,0,0,0,0,0,-0.0193,-0.0209,-0.0201,-0.0199,-0.0181,-0.0168,-0.0164,-0.0138,-0.0127,-0.0127,-0.0096,-0.0071,-0.0005,-0.0009,-0.0,0.0011,0.0069,0.0069,0.0069,0.0041,0.0039,0.0037,0,0,0,0,0,0,-0.0219,-0.0205,-0.0195,-0.0206,-0.019,-0.0161,-0.0163,-0.0145,-0.0122,-0.0119,-0.0075,-0.0064,-0.004,-0.0015,-0.002,0.0029,0.0038,0.004,0.0014,0.0012,0.001,0.0004,0.0016,0,0,0,0,0,-0.023,-0.024,-0.0216,-0.0227,-0.0221,-0.0194,-0.0187,-0.017,-0.0145,-0.0135,-0.0102,-0.0066,-0.0035,-0.0012,0.0013,0.0038,0.007,0.0052,0.005,0.0048,0.0049,0.0108,0.0111,0.0069,0.0069,0.0069,0,0,-0.0244,-0.0238,-0.0243,-0.0233,-0.022,-0.0215,-0.0188,-0.0183,-0.0173,-0.013,-0.011,-0.0079,-0.0033,-0.0004,0.001,0.0022,0.0075,0.0048,0.0047,0.0048,0.0108,0.0112,0.0116,0.0069,0.0069,0.0069,0,0,-0.0276,-0.0272,-0.0287,-0.0275,-0.026,-0.024,-0.0242,-0.0214,-0.0195,-0.0177,-0.0138,-0.0099,-0.0061,-0.0013,0.0014,0.0017,0.0056,0.0021,0.0019,0.0076,0.008,0.0084,0.0121,0.0128,0.003,0.003,0.003,0,-0.0293,-0.0307,-0.0289,-0.0295,-0.0287,-0.0254,-0.026,-0.0237,-0.0203,-0.0184,-0.0177,-0.0099,-0.006,-0.0003,0.0002,0.0015,0.0042,0.0023,0.0074,0.0079,0.0084,0.012,0.0129,0.0028,0.0029,0.0029,0.0029,0,-0.0329,-0.0338,-0.0346,-0.0341,-0.0329,-0.0331,-0.0295,-0.028,-0.0257,-0.0223,-0.0176,-0.012,-0.0067,-0.0046,-0.002,0.0036,0.0041,0.0057,0.0079,0.0086,0.0124,0.0134,0.0026,0.0027,0.0027,0.0028,0,0,-0.0368,-0.0372,-0.0374,-0.0379,-0.0353,-0.0349,-0.033,-0.0296,-0.028,-0.0234,-0.0201,-0.0131,-0.0095,-0.0063,-0.0016,0.0041,0.0098,0.006,0.0063,0.0095,0.0208,0.0182,0.0191,0.0122,0.0123,0.0125,0.0217,0,-0.04,-0.0427,-0.0413,-0.0428,-0.0434,-0.0395,-0.0378,-0.034,-0.0301,-0.0261,-0.0182,-0.014,-0.0101,-0.0076,-0.0012,0.0068,0.0123,0.007,0.0197,0.0201,0.0178,0.0202,0.013,0.0225,0.0227,0.0229,0.023,0,-0.0432,-0.0446,-0.0473,-0.0468,-0.0466,-0.0468,-0.0432,-0.0412,-0.0338,-0.0306,-0.0238,-0.0182,-0.0088,-0.0065,0.0087,0.0048,0.0122,0.0185,0.0191,0.0185,0.0194,0.022,0.0248,0.0247,0.0245,0.0244,0.0243,0,-0.0466,-0.0483,-0.0509,-0.0508,-0.0497,-0.0499,-0.0487,-0.0428,-0.0407,-0.0333,-0.0307,-0.0194,-0.014,-0.0025,0.0103,0.0097,0.026,0.0273,0.0322,0.0321,0.0328,0.0323,0.0379,0.0379,0.0378,0.0378,0.0378,0,-0.0495,-0.0517,-0.0534,-0.0548,-0.0573,-0.0543,-0.0547,-0.0515,-0.046,-0.0427,-0.0335,-0.0281,-0.0128,-0.0017,0.0098,0.0236,0.0262,0.0326,0.0349,0.0311,0.0303,0.0335,0.0329,0.0382,0.0381,0.038,0.0379,0,-0.0523,-0.0535,-0.0571,-0.0585,-0.0594,-0.061,-0.0603,-0.0595,-0.0539,-0.0493,-0.0472,-0.034,-0.0194,-0.0045,0.0144,0.0222,0.0361,0.0402,0.0338,0.0355,0.0383,0.0374,0.0469,0.0469,0.0469,0.0469,0.0469,0,-0.0537,-0.0561,-0.0611,-0.064,-0.0654,-0.0674,-0.0683,-0.0644,-0.0624,-0.052,-0.0494,-0.0357,-0.0255,-0.0005,0.0144,0.0351,0.0376,0.0435,0.0423,0.0382,0.0396,0.0387,0.0378,0.0469,0.0469,0.0469,0.0469,0,-0.0561,-0.0589,-0.0619,-0.0685,-0.0719,-0.0745,-0.0749,-0.0739,-0.0671,-0.0629,-0.0492,-0.0351,-0.0193,-0.0004,0.0145,0.0297,0.0392,0.0436,0.0437,0.0426,0.0383,0.0395,0.0386,0.0469,0.0469,0.0469,0.0469,0,-0.0578,-0.0611,-0.0662,-0.0712,-0.0764,-0.0787,-0.0788,-0.0742,-0.0708,-0.0582,-0.0539,-0.0349,-0.0239,-0.0031,0.0117,0.025,0.0286,0.0323,0.033,0.0332,0.0259,0.0182,0.0233,0,0,0,0,0,-0.0584,-0.0624,-0.0681,-0.0733,-0.0786,-0.0809,-0.0814,-0.0797,-0.0736,-0.0645,-0.0584,-0.0426,-0.0185,-0.0076,0.0055,0.0098,0.0287,0.0252,0.0327,0.0469,0.0469,0.0404,0,0,0,0,0,0,-0.0589,-0.0647,-0.0678,-0.0737,-0.0773,-0.0818,-0.0821,-0.0783,-0.0716,-0.0637,-0.0507,-0.0411,-0.0183,-0.0261,0.0053,0.0094,0.0156,0.0372,0.0374,0.0469,0.0469,0.0469,0.0402,0,0,0,0,0]}]]